Location: Springfield
(37.2150°N, 93.2980°W)
Time: 19:58:09
(UTC-06:00)

Hubble Space Telescope - Visible Passes

Search period start: 21 January 2018 00:00
Search period end: 31 January 2018 00:00
Orbit: 537 x 541 km, 28.5° (Epoch: 20 January)

Date Brightness Start Highest point End Pass type
(mag) Time Alt. Az. Time Alt. Az. Time Alt. Az.
22 Jan 3.3 19:42:55 10° SSW 19:43:55 14° SSW 19:43:55 14° SSW visible
23 Jan 2.9 19:32:18 10° SSW 19:34:20 17° S 19:34:20 17° S visible
24 Jan 2.6 19:21:45 10° SW 19:24:44 20° S 19:24:44 20° S visible
25 Jan 2.4 19:11:17 10° SW 19:14:29 22° S 19:15:07 21° SSE visible
26 Jan 2.5 19:00:51 10° SW 19:04:09 23° S 19:05:31 19° SSE visible
27 Jan 2.5 18:50:28 10° SW 18:53:48 24° S 18:55:55 16° SE visible
28 Jan 2.5 18:40:07 10° SW 18:43:28 24° S 18:46:21 12° SE visible
28 Jan 3.8 20:21:21 10° SW 20:21:43 11° SW 20:21:43 11° SW visible
29 Jan 2.6 18:29:48 10° WSW 18:33:08 24° S 18:36:27 10° SE visible
29 Jan 3.6 20:11:18 10° SW 20:12:12 13° SW 20:12:12 13° SW visible
30 Jan 2.7 18:19:31 10° WSW 18:22:47 23° S 18:26:03 10° SE visible
30 Jan 3.5 20:01:24 10° SW 20:02:45 13° SSW 20:02:45 13° SSW visible
